TimeCDT,TemperatureF,Dew PointF,Humidity,Sea Level PressureIn,VisibilityMPH,Wind Direction,Wind SpeedMPH,Gust SpeedMPH,PrecipitationIn,Events,Conditions,WindDirDegrees,DateUTC
12:15 AM,15.8,10.4,79,30.04,10.0,ENE,8.1,-,N/A,,Clear,70,2013-03-22 05:15:00
12:35 AM,15.8,10.4,79,30.04,10.0,ENE,5.8,-,N/A,,Clear,70,2013-03-22 05:35:00
12:55 AM,15.8,10.4,79,30.04,10.0,ENE,5.8,-,N/A,,Clear,60,2013-03-22 05:55:00
1:15 AM,14.0,10.4,86,30.04,10.0,ENE,5.8,-,N/A,,Clear,70,2013-03-22 06:15:00
1:35 AM,14.0,8.6,79,30.04,10.0,East,6.9,-,N/A,,Clear,80,2013-03-22 06:35:00
1:55 AM,14.0,8.6,79,30.04,10.0,East,6.9,-,N/A,,Clear,80,2013-03-22 06:55:00
2:15 AM,14.0,8.6,79,30.04,10.0,East,6.9,-,N/A,,Clear,80,2013-03-22 07:15:00
2:35 AM,14.0,8.6,79,30.04,10.0,East,5.8,-,N/A,,Clear,80,2013-03-22 07:35:00
2:55 AM,12.2,8.6,85,30.04,10.0,East,4.6,-,N/A,,Clear,100,2013-03-22 07:55:00
3:15 AM,12.2,8.6,85,30.04,10.0,East,4.6,-,N/A,,Clear,90,2013-03-22 08:15:00
3:35 AM,12.2,10.4,92,30.03,10.0,East,5.8,-,N/A,,Clear,90,2013-03-22 08:35:00
3:55 AM,12.2,8.6,85,30.03,10.0,East,5.8,-,N/A,,Clear,80,2013-03-22 08:55:00
4:15 AM,12.2,6.8,79,30.02,10.0,East,4.6,-,N/A,,Clear,80,2013-03-22 09:15:00
4:35 AM,12.2,8.6,85,30.02,10.0,ENE,6.9,-,N/A,,Clear,70,2013-03-22 09:35:00
4:55 AM,12.2,6.8,79,30.02,10.0,East,5.8,-,N/A,,Clear,80,2013-03-22 09:55:00
5:15 AM,12.2,6.8,79,30.01,10.0,East,5.8,-,N/A,,Clear,80,2013-03-22 10:15:00
5:35 AM,12.2,6.8,79,30.01,10.0,East,5.8,-,N/A,,Clear,80,2013-03-22 10:35:00
5:55 AM,12.2,6.8,79,30.01,10.0,East,5.8,-,N/A,,Clear,90,2013-03-22 10:55:00
6:15 AM,12.2,8.6,85,30.01,10.0,East,5.8,-,N/A,,Clear,90,2013-03-22 11:15:00
6:35 AM,12.2,6.8,79,30.01,10.0,East,5.8,-,N/A,,Clear,90,2013-03-22 11:35:00
6:55 AM,12.2,6.8,79,30.01,10.0,ENE,6.9,-,N/A,,Clear,70,2013-03-22 11:55:00
7:15 AM,12.2,6.8,79,30.02,10.0,Calm,Calm,-,N/A,,Clear,0,2013-03-22 12:15:00
7:35 AM,12.2,6.8,79,30.03,10.0,East,3.5,-,N/A,,Clear,90,2013-03-22 12:35:00
7:55 AM,12.2,8.6,85,30.02,10.0,East,4.6,-,N/A,,Clear,80,2013-03-22 12:55:00
8:15 AM,12.2,8.6,85,30.02,10.0,East,4.6,-,N/A,,Clear,90,2013-03-22 13:15:00
8:35 AM,14.0,8.6,79,30.02,10.0,East,4.6,-,N/A,,Clear,90,2013-03-22 13:35:00
8:55 AM,15.8,8.6,73,30.02,10.0,East,5.8,-,N/A,,Clear,100,2013-03-22 13:55:00
9:15 AM,15.8,10.4,79,30.01,10.0,ESE,8.1,-,N/A,,Clear,110,2013-03-22 14:15:00
9:35 AM,15.8,12.2,86,30.01,10.0,East,6.9,-,N/A,,Clear,90,2013-03-22 14:35:00
9:55 AM,17.6,12.2,79,30.01,10.0,East,6.9,-,N/A,,Clear,100,2013-03-22 14:55:00
10:15 AM,17.6,12.2,79,30.01,10.0,ESE,5.8,-,N/A,,Clear,120,2013-03-22 15:15:00
10:35 AM,19.4,12.2,74,30.01,10.0,ESE,6.9,-,N/A,,Clear,120,2013-03-22 15:35:00
10:55 AM,21.2,14.0,74,30.02,10.0,SE,6.9,-,N/A,,Scattered Clouds,130,2013-03-22 15:55:00
11:15 AM,21.2,15.8,80,30.02,10.0,SSE,6.9,-,N/A,,Mostly Cloudy,150,2013-03-22 16:15:00
11:35 AM,23.0,15.8,74,30.02,10.0,SE,9.2,-,N/A,,Partly Cloudy,130,2013-03-22 16:35:00
11:55 AM,23.0,17.6,80,30.02,10.0,SE,8.1,-,N/A,,Clear,140,2013-03-22 16:55:00
12:15 PM,24.8,17.6,74,30.01,10.0,ESE,8.1,-,N/A,,Partly Cloudy,120,2013-03-22 17:15:00
12:35 PM,24.8,17.6,74,30.01,10.0,SE,6.9,-,N/A,,Partly Cloudy,130,2013-03-22 17:35:00
12:55 PM,24.8,17.6,74,30.01,10.0,East,5.8,-,N/A,,Mostly Cloudy,100,2013-03-22 17:55:00
1:15 PM,24.8,15.8,69,30.01,10.0,South,8.1,-,N/A,,Overcast,170,2013-03-22 18:15:00
1:35 PM,26.6,17.6,69,30.01,10.0,SE,5.8,-,N/A,,Overcast,140,2013-03-22 18:35:00
1:55 PM,26.6,17.6,69,30.01,10.0,ESE,5.8,-,N/A,,Overcast,120,2013-03-22 18:55:00
2:15 PM,26.6,17.6,69,30.02,10.0,South,5.8,-,N/A,,Overcast,170,2013-03-22 19:15:00
2:35 PM,26.6,17.6,69,30.02,10.0,SSE,5.8,-,N/A,,Overcast,150,2013-03-22 19:35:00
2:55 PM,26.6,17.6,69,30.01,10.0,SSE,4.6,-,N/A,,Overcast,150,2013-03-22 19:55:00
3:15 PM,28.4,19.4,69,30.01,10.0,SSE,4.6,-,N/A,,Overcast,150,2013-03-22 20:15:00
3:35 PM,28.4,19.4,69,30.00,10.0,ESE,3.5,-,N/A,,Overcast,120,2013-03-22 20:35:00
3:55 PM,30.2,19.4,64,30.01,10.0,Calm,Calm,-,N/A,,Overcast,0,2013-03-22 20:55:00
4:15 PM,28.4,17.6,64,30.00,10.0,Calm,Calm,-,N/A,,Mostly Cloudy,0,2013-03-22 21:15:00
4:35 PM,30.2,19.4,64,30.00,10.0,Calm,Calm,-,N/A,,Mostly Cloudy,0,2013-03-22 21:35:00
4:55 PM,28.4,17.6,64,30.00,10.0,Calm,Calm,-,N/A,,Scattered Clouds,0,2013-03-22 21:55:00
5:15 PM,28.4,17.6,64,30.00,10.0,Calm,Calm,-,N/A,,Scattered Clouds,0,2013-03-22 22:15:00
5:35 PM,28.4,17.6,64,30.00,10.0,Calm,Calm,-,N/A,,Mostly Cloudy,0,2013-03-22 22:35:00
5:55 PM,30.2,17.6,60,30.00,10.0,SE,5.8,-,N/A,,Partly Cloudy,130,2013-03-22 22:55:00
6:15 PM,28.4,19.4,69,30.00,10.0,SE,4.6,-,N/A,,Mostly Cloudy,140,2013-03-22 23:15:00
6:35 PM,28.4,19.4,69,30.01,10.0,ESE,4.6,-,N/A,,Overcast,120,2013-03-22 23:35:00
6:55 PM,28.4,17.6,64,30.01,10.0,ESE,3.5,-,N/A,,Overcast,110,2013-03-22 23:55:00
7:15 PM,28.4,17.6,64,30.02,10.0,Calm,Calm,-,N/A,,Overcast,0,2013-03-23 00:15:00
7:35 PM,28.4,21.2,74,30.02,10.0,ENE,8.1,-,N/A,,Overcast,60,2013-03-23 00:35:00
7:55 PM,26.6,21.2,80,30.03,10.0,NE,9.2,-,N/A,,Overcast,50,2013-03-23 00:55:00
8:15 PM,26.6,19.4,74,30.03,10.0,ENE,10.4,-,N/A,,Overcast,70,2013-03-23 01:15:00
8:35 PM,24.8,21.2,86,30.04,10.0,ENE,9.2,-,N/A,,Overcast,70,2013-03-23 01:35:00
8:55 PM,24.8,21.2,86,30.05,10.0,NE,9.2,-,N/A,,Overcast,50,2013-03-23 01:55:00
9:15 PM,24.8,19.4,80,30.05,10.0,ENE,9.2,-,N/A,,Overcast,70,2013-03-23 02:15:00
9:35 PM,24.8,19.4,80,30.05,10.0,ENE,11.5,-,N/A,,Overcast,70,2013-03-23 02:35:00
9:55 PM,23.0,19.4,86,30.05,10.0,ENE,8.1,-,N/A,,Overcast,60,2013-03-23 02:55:00
10:15 PM,23.0,17.6,80,30.06,10.0,East,9.2,-,N/A,,Partly Cloudy,80,2013-03-23 03:15:00
10:35 PM,23.0,17.6,80,30.06,10.0,East,10.4,-,N/A,,Clear,80,2013-03-23 03:35:00
10:55 PM,21.2,17.6,86,30.05,10.0,East,10.4,-,N/A,,Clear,80,2013-03-23 03:55:00
11:15 PM,21.2,17.6,86,30.06,10.0,East,9.2,-,N/A,,Scattered Clouds,80,2013-03-23 04:15:00
11:35 PM,21.2,17.6,86,30.06,10.0,ENE,5.8,-,N/A,,Overcast,70,2013-03-23 04:35:00
11:55 PM,21.2,17.6,86,30.07,10.0,NE,6.9,-,N/A,,Overcast,50,2013-03-23 04:55:00